Wind_Speed
14 13 12 12 13 12 11 10 10 10 10 10 9 9 8 7 6 7 8 8 9 9 8 8 8 8 8 8 8 9 10 11 13 15 16 16 17 17 17 18 19 19 19 20 21 20 19 18 18 18 17 17 16 15 15 15 16 16 17 17 17 17 18 19 20 19 19 18 18 18 17 18 17 17 18 18 19 18 18 19 20 22 23 23 23
14 12 12 13 13 13 12 11 10 9 9 9 8 9 8 7 6 7 7 7 8 7 7 7 7 7 7 7 9 10 11 12 13 14 15 17 18 18 19 20 20 20 19 20 20 20 19 18 17 17 16 15 15 14 14 14 15 16 15 15 15 14 15 17 18 19 19 19 19 17 16 17 17 17 17 17 18 18 19 19 19 21 22 23 24
13 12 12 13 12 12 12 11 10 10 10 9 8 9 8 8 8 7 7 7 7 6 5 5 5 6 7 8 9 10 11 12 13 14 16 18 19 20 20 20 20 19 18 18 18 18 17 16 15 15 14 13 13 13 13 13 13 14 13 12 12 12 13 15 17 18 18 19 19 17 15 15 16 17 17 17 17 18 19 19 20 21 22 23 24
12 11 12 13 13 12 12 11 12 11 11 10 9 8 8 8 8 8 7 7 7 5 5 5 5 6 7 8 9 10 11 13 15 16 17 19 20 20 20 19 18 17 16 16 16 15 14 14 13 13 12 12 13 13 13 13 13 12 12 11 11 12 13 15 17 18 18 20 20 19 18 16 16 16 16 16 17 17 18 19 21 22 22 23 24
11 11 11 11 11 11 11 11 12 12 11 9 9 9 9 9 8 8 8 7 6 5 4 4 4 6 7 8 9 11 13 14 16 18 19 19 20 20 19 18 18 17 17 17 16 15 14 13 13 13 13 13 13 13 13 13 13 12 12 12 13 13 13 14 16 17 18 19 20 20 20 19 18 18 17 16 17 17 17 18 20 22 22 23 24
13 12 11 9 8 9 11 11 11 11 10 9 10 9 9 9 8 8 7 6 5 4 3 3 4 5 7 8 10 11 12 14 15 17 17 18 18 18 18 18 18 18 17 17 16 15 14 14 14 14 14 13 13 13 13 13 13 12 12 13 14 14 13 14 15 17 17 18 18 19 20 21 21 20 20 18 16 16 17 18 19 21 22 22 22
15 13 12 11 10 9 10 10 9 9 9 9 10 9 9 9 8 8 7 5 4 3 3 3 3 4 6 7 8 9 10 12 13 14 16 17 18 18 18 18 17 16 16 16 15 15 14 14 14 13 13 13 12 12 13 13 13 13 12 12 13 14 14 14 15 16 17 17 17 18 20 21 22 22 23 22 19 17 16 18 19 20 21 22 22
16 15 14 13 12 10 9 8 8 9 9 10 10 9 9 9 8 8 7 5 5 4 2 1 2 4 5 6 8 9 11 12 14 16 17 18 19 19 18 18 17 16 15 14 14 14 14 13 12 12 12 12 12 12 13 13 13 14 13 12 12 13 13 14 15 15 15 16 16 17 18 20 21 21 22 23 24 21 17 16 18 19 20 21 23
17 17 16 14 12 11 10 9 9 10 10 10 10 10 10 10 8 8 7 6 6 4 2 1 3 4 5 7 8 10 12 14 15 16 17 18 19 19 19 19 18 17 15 15 14 14 14 14 13 13 13 13 13 13 13 13 14 14 13 13 12 13 14 15 15 15 15 15 16 17 18 19 19 20 21 22 24 25 21 18 17 18 18 20 22
18 17 17 16 13 13 13 13 12 11 11 11 12 12 11 10 9 9 8 8 8 5 3 2 1 2 4 7 9 11 12 14 16 17 18 20 21 21 21 21 20 19 18 17 16 15 15 15 15 15 14 15 14 14 14 14 13 13 13 13 13 13 14 15 15 16 16 16 16 16 18 19 19 19 20 22 23 24 24 21 19 19 18 18 20
19 16 16 16 16 16 16 17 16 14 13 13 13 13 12 11 11 10 11 11 9 7 5 3 2 3 5 7 9 11 12 14 16 18 20 22 23 24 23 23 22 21 20 19 17 16 16 15 15 15 16 16 16 15 15 14 14 14 14 13 13 13 14 14 14 15 16 16 17 17 18 18 18 18 19 21 22 23 24 23 21 20 19 18 19
21 19 17 17 18 20 20 20 19 18 16 14 13 13 13 13 13 13 13 12 10 8 6 5 4 4 5 7 9 10 12 14 16 18 21 23 24 26 26 25 24 22 21 19 18 17 16 15 15 16 17 17 17 16 15 15 15 15 14 14 14 14 14 14 15 16 16 17 17 18 18 18 18 19 20 21 21 22 23 23 22 20 19 18 18
21 20 19 19 19 20 21 21 21 20 18 16 15 15 15 14 14 15 14 14 12 10 8 7 6 4 5 7 9 11 12 14 16 18 21 23 25 27 27 26 25 24 22 20 18 17 16 16 16 16 17 17 17 17 16 15 15 15 15 15 15 15 15 15 15 16 16 17 17 17 18 18 18 18 19 19 20 21 22 23 23 22 20 18 18
18 19 19 21 20 17 18 19 19 19 19 18 17 17 16 16 16 16 16 16 14 12 10 9 7 6 6 8 10 12 13 15 16 18 20 23 25 27 28 28 27 24 22 20 19 18 17 16 16 16 16 16 16 16 16 15 15 15 15 15 16 16 17 17 17 16 16 16 17 17 17 17 18 17 17 18 19 21 22 23 24 23 22 19 17
17 17 17 19 19 17 16 16 15 15 16 18 19 19 18 18 18 18 19 18 16 14 12 11 10 9 9 9 11 13 14 16 17 18 20 22 25 27 29 29 27 24 22 20 19 18 17 16 16 16 16 16 16 16 16 15 15 15 15 15 16 17 18 18 18 18 17 17 17 18 18 18 18 18 18 19 20 21 22 24 25 26 25 22 19
15 14 16 18 19 19 18 16 14 13 13 15 18 20 20 19 19 20 20 19 18 16 15 13 12 12 12 12 12 13 15 16 17 18 20 22 25 27 28 29 27 24 22 20 19 18 17 16 16 15 15 16 16 15 15 15 15 15 15 15 15 16 17 17 18 18 18 18 18 18 19 19 19 19 20 20 20 21 23 24 25 26 27 27 24
15 14 16 18 20 20 18 17 15 13 12 12 15 18 20 20 19 21 22 21 21 19 17 16 15 15 15 14 14 15 16 17 18 18 20 23 25 26 28 29 28 25 22 20 19 18 17 16 15 15 15 15 15 15 15 15 15 15 15 14 15 16 17 17 18 18 19 19 18 18 19 20 20 21 21 21 22 22 23 24 25 26 27 29 29
17 16 17 18 20 20 19 18 15 13 11 10 11 14 18 21 21 22 24 23 22 20 19 18 17 17 18 17 17 17 17 18 18 19 20 23 25 26 28 29 29 25 22 19 18 17 16 15 14 14 15 14 14 14 15 14 14 15 15 14 14 15 17 18 19 19 20 20 19 19 19 19 20 20 21 22 23 22 22 23 24 25 27 28 30
22 21 21 21 22 22 21 20 18 16 14 13 13 14 17 20 21 23 24 25 24 23 21 21 21 20 20 20 19 19 18 19 20 20 22 24 26 27 28 30 28 25 22 21 19 16 15 15 14 14 14 14 14 14 14 14 14 14 14 14 14 15 16 18 19 19 20 20 20 20 21 21 21 20 21 22 22 23 23 23 24 25 26 27 29
23 22 21 21 22 23 23 22 21 19 18 17 18 19 18 19 21 23 25 27 27 26 26 25 24 23 23 22 21 21 21 22 22 22 23 26 28 27 28 29 28 25 23 21 18 15 14 14 14 14 14 14 14 14 14 14 13 13 13 14 15 16 17 18 19 19 19 20 20 21 21 22 21 21 21 22 23 24 24 25 25 25 26 27 29
21 19 19 20 21 23 23 22 22 22 22 21 20 21 21 21 21 23 26 28 29 29 29 28 26 26 26 24 24 24 24 24 23 23 24 27 29 28 28 29 27 24 22 19 16 14 13 13 13 14 14 14 14 15 16 16 14 14 14 15 16 17 18 18 19 19 20 20 20 21 21 21 21 21 21 22 23 25 26 26 26 25 25 26 28
17 16 16 18 20 21 21 22 23 24 24 22 20 21 22 22 23 24 26 28 29 30 31 30 29 29 28 27 26 26 26 25 24 24 25 28 29 28 28 28 26 23 20 17 15 13 12 12 12 12 13 14 14 16 17 17 16 16 16 16 17 17 18 18 19 20 21 21 21 21 21 21 22 22 22 23 24 25 26 26 25 25 25 25 27
10 10 13 17 19 20 20 21 22 22 22 21 21 21 20 21 22 25 27 28 29 30 32 33 32 31 31 30 29 28 27 26 25 24 26 29 29 28 28 27 25 21 19 17 15 13 11 11 11 11 12 13 14 15 16 17 17 17 17 18 19 18 18 18 19 20 21 22 22 21 21 21 22 22 22 23 24 25 25 25 24 25 26 26 26
8 9 13 17 19 21 22 22 21 20 20 21 21 21 20 20 21 23 25 27 28 29 31 33 34 33 33 32 31 30 29 27 26 26 29 31 28 27 28 26 23 20 18 17 15 12 11 10 10 11 12 13 14 15 17 17 18 19 19 19 20 19 19 19 19 20 21 22 22 21 21 21 21 21 22 22 23 23 23 24 25 26 27 27 27
6 8 13 17 20 22 22 22 20 18 18 18 18 19 19 20 20 21 23 25 27 28 30 32 34 35 35 34 33 32 31 29 27 27 30 29 26 27 27 24 22 20 18 17 15 14 14 13 13 13 13 14 15 17 18 18 19 19 19 19 20 20 20 20 20 21 21 21 21 21 21 21 21 22 22 23 23 23 23 24 25 26 28 28 27
5 6 8 12 16 18 19 20 19 17 17 17 17 18 19 20 20 20 21 23 25 26 28 31 33 35 36 35 35 34 33 30 27 27 28 26 25 27 26 23 22 20 18 16 16 17 17 17 17 17 16 17 17 18 18 18 18 18 19 19 20 20 20 20 20 20 21 21 21 21 21 21 21 22 22 22 23 23 23 24 24 25 27 27 26
7 5 4 6 10 12 15 18 19 19 18 17 17 18 20 20 20 19 20 22 23 25 28 30 31 33 35 36 36 35 34 31 27 26 26 25 25 26 25 23 21 18 16 16 17 18 18 18 19 19 19 19 20 20 19 18 18 18 19 19 19 19 19 19 20 20 20 20 20 21 21 21 21 22 21 21 21 21 22 23 23 24 25 25 26
10 7 6 8 9 11 13 16 19 21 21 20 19 19 20 19 19 20 21 21 23 25 27 29 31 32 34 35 36 35 33 30 27 26 25 24 25 25 23 20 18 15 15 16 17 17 17 18 19 20 21 21 21 21 20 19 18 18 19 19 19 19 18 18 19 19 20 20 20 20 20 21 21 22 22 22 21 21 21 22 22 24 25 26 27
14 9 9 10 11 12 13 15 17 20 22 23 23 22 22 21 20 21 22 22 23 25 27 29 31 32 33 34 35 35 33 29 26 26 25 24 24 23 20 18 15 14 15 16 17 18 18 18 19 20 21 21 21 20 19 19 18 18 19 19 19 19 19 18 18 19 20 20 20 20 20 21 21 22 22 22 22 22 22 22 22 24 25 27 28
17 12 11 11 13 14 15 16 17 19 21 23 25 26 26 24 24 23 23 23 24 25 26 28 30 32 33 34 35 35 31 27 25 25 24 24 23 21 19 17 16 16 17 18 19 19 18 18 18 19 20 21 20 20 19 19 19 19 19 19 20 20 19 19 20 20 20 20 20 20 20 21 22 22 22 23 23 23 23 23 23 24 25 27 28
17 15 13 13 15 17 18 19 19 19 20 21 24 26 28 28 28 27 25 24 24 24 24 25 27 29 31 32 32 30 27 24 23 23 23 23 21 18 17 16 17 18 19 19 19 20 19 19 18 19 20 20 21 21 21 20 20 20 20 20 20 20 20 21 21 21 21 20 20 20 21 22 22 22 22 23 23 23 23 23 23 24 25 26 27
17 16 15 16 18 19 20 20 21 21 22 22 22 24 27 29 30 30 28 26 24 22 22 23 24 25 27 27 24 22 22 21 22 23 23 21 18 16 15 16 18 19 19 18 19 21 21 20 20 20 20 20 21 22 23 22 22 21 21 21 21 21 22 22 22 23 23 23 22 21 22 23 23 22 22 23 22 22 22 23 23 23 24 25 27
16 16 18 19 21 21 21 21 22 23 24 24 23 24 25 27 29 30 29 26 23 20 20 20 20 20 21 20 17 18 19 20 21 22 21 18 16 15 15 16 18 19 19 20 20 22 23 22 22 23 23 22 22 23 24 24 22 21 22 23 22 22 22 22 23 24 25 24 23 23 23 24 23 23 23 23 22 22 22 22 23 22 23 24 26
15 18 21 21 21 22 22 22 23 25 25 25 25 24 23 24 27 28 28 26 23 20 19 19 18 17 18 17 16 17 17 18 20 20 18 16 16 16 17 18 19 20 21 22 23 23 24 24 24 25 26 25 24 24 25 23 21 20 22 23 23 23 23 23 23 24 24 23 23 23 23 23 24 23 23 24 23 23 23 22 22 22 22 23 24
18 20 22 21 20 21 23 24 26 26 27 27 25 23 22 23 25 27 28 26 22 18 18 18 17 18 19 17 15 16 17 18 19 18 16 16 16 18 19 19 21 23 24 25 24 24 24 25 26 26 26 26 25 26 25 23 20 20 22 23 23 23 23 23 23 22 22 22 22 23 23 23 23 24 24 24 24 23 23 22 22 22 22 22 22
18 19 19 17 16 17 19 23 26 27 28 27 24 22 22 23 25 27 27 26 22 18 18 19 18 18 17 15 14 16 18 18 17 16 15 15 17 19 20 21 22 24 26 26 25 26 28 28 26 26 25 25 26 26 24 22 21 21 23 23 23 23 23 23 23 22 21 21 22 23 23 23 23 24 24 25 25 24 23 23 22 23 22 21 21
17 17 17 16 16 17 17 19 21 24 25 25 23 23 24 25 27 27 26 24 20 17 19 21 19 16 13 12 14 17 17 16 15 15 14 16 18 19 20 22 24 25 27 28 28 28 29 28 26 26 26 24 25 26 24 21 22 23 24 24 23 22 23 23 23 22 20 21 22 23 24 24 24 24 25 25 25 25 24 23 23 23 23 22 21
16 15 16 18 18 19 19 18 18 19 21 23 24 25 27 29 29 28 25 21 17 15 17 18 16 14 12 11 14 17 17 15 14 14 15 17 19 20 22 24 26 27 28 30 31 32 33 31 25 23 24 24 25 26 24 22 23 24 25 24 22 22 23 23 23 21 20 20 22 23 24 24 24 25 26 25 26 26 26 25 24 24 24 23 22
15 16 17 18 17 17 18 19 20 19 19 22 25 28 30 31 29 25 21 18 15 14 14 14 14 14 12 13 16 17 16 15 14 14 16 18 19 21 23 25 26 26 27 28 29 31 33 33 27 21 20 22 24 25 24 23 23 24 23 22 22 22 22 23 22 20 19 20 22 24 25 25 25 26 27 27 27 28 27 26 25 25 25 24 24
15 16 17 17 17 18 19 20 19 18 19 23 28 32 33 31 25 21 18 17 14 13 14 16 15 14 14 15 16 15 14 14 14 15 17 19 21 22 23 25 26 27 27 27 27 27 27 27 27 25 23 22 22 24 24 22 22 22 22 22 24 24 23 22 22 20 19 20 22 24 25 25 26 27 28 28 28 28 28 26 26 26 26 25 25
15 16 17 19 21 22 22 22 20 20 22 26 31 35 34 27 22 20 17 14 14 18 19 18 16 15 14 13 13 12 13 14 15 17 19 21 23 24 24 25 27 27 27 27 27 26 24 24 27 28 28 25 23 22 22 22 22 23 23 24 25 24 23 22 22 20 20 21 22 24 25 26 26 27 28 28 28 28 28 27 26 26 25 25 26
15 17 19 21 23 24 24 23 22 22 25 27 31 34 32 29 26 19 15 16 19 22 20 17 15 12 10 10 10 11 13 15 17 19 22 24 25 25 23 26 28 27 26 26 25 25 24 25 27 28 28 27 25 23 22 23 23 24 26 26 25 24 24 24 22 21 22 23 24 25 25 25 26 27 28 28 28 27 27 26 25 25 24 25 26
17 19 21 24 25 25 24 23 21 22 26 29 31 33 31 28 24 18 19 20 21 20 17 15 12 9 7 8 10 12 14 17 19 21 23 24 25 25 23 25 28 28 28 27 25 25 25 26 26 25 24 25 25 25 25 25 24 24 26 27 26 26 26 25 23 22 23 25 26 26 26 26 26 26 27 27 26 25 25 24 24 24 25 26 26
22 22 24 25 26 25 24 24 23 24 27 29 29 31 28 21 22 23 21 20 19 17 16 13 9 6 7 9 11 13 16 19 21 22 23 24 25 26 25 26 28 29 29 28 25 25 27 25 23 21 20 22 24 25 27 27 25 24 26 26 26 27 27 26 25 25 26 27 27 27 27 26 26 26 26 25 24 23 23 23 23 24 25 26 26
24 24 24 23 23 23 23 24 25 26 27 27 27 27 23 19 23 22 20 20 19 19 17 11 7 7 9 11 12 15 18 20 22 23 24 26 27 28 28 28 29 29 29 28 26 25 26 25 23 22 21 23 25 26 27 27 25 24 26 27 27 28 28 27 27 28 29 29 28 28 27 25 25 25 24 23 22 23 23 22 23 24 26 26 26
25 25 23 21 21 22 22 23 24 25 26 27 26 25 22 23 26 23 19 23 23 18 13 8 8 10 11 13 14 18 21 22 23 25 26 27 27 28 28 28 28 28 28 26 25 24 24 24 24 22 21 22 24 25 26 25 23 24 26 27 28 28 28 28 28 30 31 30 29 28 27 25 24 23 22 22 22 22 22 22 23 25 27 27 26
26 25 23 21 21 21 21 22 23 25 27 27 24 23 24 25 25 21 18 25 21 13 12 12 12 12 13 15 19 24 27 25 25 26 27 27 27 27 28 27 27 26 26 25 23 22 22 22 22 21 22 23 24 24 24 24 22 23 25 27 28 28 28 29 30 31 32 31 30 28 26 24 23 22 21 21 22 22 22 22 24 26 27 28 27
27 25 22 20 19 19 20 21 24 26 26 24 22 23 25 25 22 17 18 22 19 17 18 15 11 12 16 19 24 28 29 27 26 27 28 28 28 27 27 27 26 26 25 24 23 22 22 22 22 22 24 25 25 25 25 24 23 24 26 28 28 27 28 31 31 32 32 32 30 28 26 24 22 21 21 21 22 22 22 23 25 26 27 28 28
26 23 20 18 17 19 20 21 22 23 22 21 21 22 24 25 21 17 20 22 22 24 24 18 15 18 20 22 26 28 28 26 27 28 30 30 29 29 29 28 28 27 26 25 24 22 22 23 24 24 24 24 25 24 24 25 25 26 26 27 26 26 29 32 33 32 32 31 29 27 25 23 22 21 22 22 22 23 23 24 25 26 27 28 28
26 22 18 18 18 20 20 19 18 19 20 19 20 22 25 26 24 23 25 26 24 25 25 22 23 24 23 24 26 26 27 28 28 29 31 31 31 31 30 30 30 29 27 26 24 23 23 24 25 25 24 24 24 24 25 26 27 26 26 26 26 28 30 32 32 31 30 29 28 25 23 22 22 22 23 23 23 23 24 24 25 25 27 28 28
23 20 18 18 19 19 20 19 18 19 20 20 21 24 26 28 28 29 28 26 23 23 24 25 25 25 24 25 26 26 28 29 29 29 31 33 33 32 32 32 31 30 29 27 25 25 24 25 25 25 25 24 25 25 26 26 27 27 26 26 27 29 30 31 31 30 30 29 26 22 21 21 22 23 23 23 23 24 24 24 25 26 26 28 28
Wind_Direction
221 218 207 200 201 206 211 208 208 212 218 225 232 239 241 242 233 225 225 225 231 240 245 255 263 270 281 286 290 293 296 301 302 305 305 302 306 311 312 312 313 313 310 307 306 308 308 308 307 306 307 309 310 307 304 300 297 294 292 288 284 281 279 277 276 275 276 277 278 279 282 281 279 279 279 278 277 273 267 261 259 259 260 261 260
220 218 209 204 203 207 213 213 211 213 215 219 222 223 229 236 225 213 212 213 219 228 236 250 261 274 288 294 297 300 301 303 304 306 307 310 315 317 317 316 315 314 312 309 309 310 310 311 309 308 309 310 310 308 305 302 299 298 297 295 293 289 284 281 280 280 279 278 277 279 280 279 279 278 276 275 274 273 272 268 264 261 261 261 261
216 213 209 210 211 212 215 216 215 214 214 217 216 216 223 224 216 207 204 210 216 222 237 252 264 280 291 297 302 305 305 307 308 310 311 314 316 316 316 315 314 313 309 307 307 308 308 308 306 306 308 310 311 312 311 309 306 304 301 294 291 291 288 286 285 286 286 285 286 287 283 276 275 276 275 274 272 271 272 272 270 267 265 263 261
212 206 209 214 215 214 215 216 215 217 216 216 215 214 215 214 210 207 209 215 221 230 251 267 280 291 298 305 309 310 312 313 312 312 312 312 312 313 314 314 315 314 312 312 311 311 310 309 309 310 314 317 319 318 317 315 312 308 303 293 288 288 288 288 287 288 289 290 293 293 289 282 276 272 269 269 270 268 268 269 270 269 267 265 262
212 202 208 215 212 210 214 216 213 216 215 208 210 211 211 213 212 214 219 224 228 239 259 277 291 299 304 310 314 316 317 316 314 314 313 314 315 317 320 322 323 324 324 323 322 321 321 318 319 321 323 325 324 321 319 318 315 311 305 297 293 290 287 283 283 285 288 291 294 294 291 288 284 278 272 269 269 269 269 269 270 269 267 264 263
213 207 210 212 208 206 212 216 213 213 210 202 207 210 211 217 220 223 228 230 236 248 261 276 292 302 314 320 324 325 325 324 323 324 326 329 331 332 333 333 332 332 330 328 326 325 324 322 323 325 325 324 323 323 322 322 319 314 307 300 295 292 288 282 280 282 286 290 292 292 292 292 292 291 288 281 272 269 271 273 274 275 274 270 266
211 209 211 209 209 210 213 220 217 215 214 210 215 214 215 224 225 224 227 231 236 241 248 279 312 331 344 346 350 354 354 352 350 348 348 347 347 344 341 339 336 334 330 328 327 324 322 322 323 324 324 324 324 325 325 324 321 316 310 303 298 296 293 288 284 284 286 288 288 288 290 294 297 298 298 294 288 278 272 273 274 276 278 278 275
218 217 216 212 212 215 218 222 222 224 224 223 226 221 222 228 224 218 220 220 217 222 238 338 17 27 31 23 20 19 14 10 6 3 359 354 351 348 344 342 338 335 332 329 326 322 322 324 327 328 328 327 327 328 328 326 323 319 315 310 306 303 301 298 296 292 289 286 286 288 291 295 298 299 298 298 298 295 286 279 276 275 276 278 278
222 223 226 224 221 221 223 225 223 226 228 230 231 227 227 228 223 216 214 211 207 204 198 108 80 60 43 28 19 14 9 7 4 2 360 355 352 349 346 343 339 337 333 331 329 326 327 330 333 333 333 332 332 333 330 325 323 319 314 311 309 308 305 304 303 300 296 292 290 291 292 294 296 297 298 298 300 301 299 295 287 281 277 275 275
225 222 226 226 227 227 229 231 230 228 229 231 230 229 231 228 224 220 212 208 205 200 192 162 117 28 9 8 6 4 3 2 360 359 357 355 353 351 349 346 341 337 334 333 333 330 330 332 334 334 334 334 334 333 330 324 322 318 313 309 307 306 304 304 305 304 304 302 298 294 292 292 293 295 296 297 299 299 300 301 298 292 285 277 274
236 231 230 226 223 223 227 232 234 233 231 233 232 231 233 229 224 220 213 210 210 210 207 204 244 310 342 350 353 354 354 354 354 354 354 353 353 351 350 347 342 339 335 334 333 332 333 333 333 333 333 333 333 333 330 325 322 319 315 311 307 306 305 305 306 306 307 307 305 302 298 296 295 294 294 296 297 298 299 301 301 299 295 290 285
247 246 245 238 227 221 223 228 232 234 233 234 235 234 235 232 226 221 217 216 217 221 222 227 256 293 326 336 339 342 344 346 346 348 348 348 349 349 349 347 343 339 336 334 334 334 334 333 333 334 334 332 331 331 329 324 320 318 315 312 310 308 308 308 308 308 308 308 306 305 303 301 298 296 296 296 297 298 299 301 302 301 297 294 293
249 250 249 250 244 230 224 226 231 237 236 236 236 236 237 234 229 225 220 222 225 227 230 236 250 272 302 319 326 328 331 337 339 342 343 343 344 345 346 346 343 340 338 335 334 333 333 333 332 333 333 330 328 327 325 320 316 315 314 312 310 310 309 309 308 309 308 307 305 304 303 303 301 300 298 297 298 299 300 301 303 303 301 296 293
243 247 248 252 253 243 235 230 232 238 238 238 237 235 237 234 231 227 222 224 228 231 236 240 247 258 279 298 311 318 322 326 331 335 337 338 340 341 342 344 344 341 338 335 334 332 330 330 329 329 328 326 324 322 320 317 313 312 312 311 309 306 306 306 307 307 305 303 303 303 303 302 303 303 302 299 297 298 299 300 300 300 300 298 294
238 246 250 254 255 250 247 242 240 242 241 241 239 236 238 236 231 229 227 228 231 234 239 244 248 254 267 283 297 308 313 318 322 327 331 333 335 336 339 342 343 341 338 335 332 329 327 326 325 324 323 322 320 317 316 314 311 310 308 307 304 302 302 304 305 305 304 302 301 302 302 301 303 304 303 301 299 298 298 298 298 297 296 295 291
234 243 252 256 257 253 251 251 252 253 250 245 241 239 240 239 234 230 230 230 231 235 240 245 250 255 264 275 286 298 304 310 316 321 327 330 332 334 336 340 341 340 339 336 331 327 325 324 323 321 319 317 315 314 313 311 310 308 306 303 302 301 302 304 304 305 304 303 302 301 302 302 304 304 303 303 302 300 298 297 298 297 297 296 293
234 248 258 259 259 257 256 257 259 261 260 255 247 243 243 244 239 233 232 231 231 234 239 246 251 256 264 270 278 288 295 302 310 317 324 327 329 331 333 336 338 339 340 335 328 324 322 321 320 317 314 312 311 310 310 310 309 307 303 301 301 301 302 303 303 304 303 303 303 303 304 304 305 304 304 304 303 302 300 299 298 298 297 297 296
237 249 260 262 261 261 260 261 264 265 264 262 258 250 245 247 245 238 236 237 237 238 241 247 252 257 263 268 274 281 289 296 303 311 320 326 327 327 329 333 336 339 339 333 327 323 320 317 315 313 311 310 309 308 308 308 306 304 301 299 298 298 298 298 300 301 302 303 305 306 306 306 306 306 306 306 305 303 300 299 298 297 297 297 296
236 244 253 257 258 261 263 263 266 266 267 268 268 261 252 250 250 244 240 239 239 240 242 246 251 257 262 266 272 278 285 291 297 305 315 322 324 323 326 332 335 337 337 333 329 323 317 314 313 313 311 311 311 310 308 306 304 303 301 299 298 295 294 296 299 301 303 305 307 307 305 305 305 305 305 306 305 302 300 298 297 297 296 296 297
236 245 253 257 259 262 265 266 267 268 273 275 274 270 262 257 255 250 243 240 239 241 242 245 250 255 259 264 270 276 282 287 293 299 308 316 320 320 324 331 333 335 336 333 328 321 315 314 315 316 314 313 313 312 311 309 308 308 307 305 301 298 299 301 303 304 306 307 308 307 305 304 303 303 303 303 302 299 298 297 296 296 296 296 296
236 247 255 258 260 263 265 268 268 267 269 271 273 272 267 261 259 255 249 245 245 246 246 247 250 253 257 262 267 274 280 284 290 296 302 312 315 316 323 330 332 334 335 331 326 320 315 313 313 316 319 319 316 314 316 318 318 315 312 307 304 304 307 307 307 307 307 307 308 307 307 306 305 304 302 301 299 296 295 295 296 296 296 297 297
236 246 252 253 256 259 263 265 264 263 265 266 268 270 268 265 262 258 253 250 249 250 251 250 250 252 257 260 264 271 276 281 288 293 301 309 312 314 322 329 331 333 334 332 329 324 316 309 307 312 319 322 319 316 317 319 320 316 311 308 308 310 311 310 308 308 308 309 309 308 309 308 306 305 303 301 298 296 295 295 296 297 298 299 301
225 236 245 248 252 256 260 262 262 262 264 265 265 268 267 266 264 259 254 252 251 252 253 251 249 251 256 259 262 268 272 278 284 290 299 307 309 313 322 328 329 333 335 334 333 328 320 313 310 312 317 319 319 318 318 318 318 315 312 312 313 314 313 310 307 308 309 310 310 311 311 308 307 306 306 304 302 299 297 295 296 297 299 301 304
206 224 240 246 249 253 255 257 259 261 262 263 264 264 262 259 260 260 256 253 254 254 254 252 250 251 255 257 261 266 269 275 280 288 300 305 306 312 322 326 330 334 336 335 333 328 324 321 319 318 318 319 321 322 322 320 317 315 314 314 314 313 312 309 307 308 309 310 311 311 310 307 307 308 308 306 305 303 300 296 296 297 299 302 305
199 219 236 242 245 249 252 255 259 262 262 261 259 255 253 253 257 261 259 255 254 255 255 254 251 252 255 257 261 264 268 273 278 289 301 303 303 313 321 325 330 334 337 339 338 337 336 334 331 328 326 326 325 324 322 318 315 313 313 313 312 311 311 310 310 310 309 309 309 308 307 306 307 309 309 308 306 304 300 297 297 299 301 304 306
204 213 233 243 247 251 255 258 259 259 258 256 254 250 248 249 252 257 259 257 254 255 256 254 253 255 256 258 260 264 267 270 276 289 299 298 302 313 319 324 331 337 344 349 347 345 342 337 334 330 328 326 323 321 318 315 314 313 313 313 312 310 310 310 310 309 308 308 307 305 304 304 306 308 311 310 308 305 301 301 302 303 304 305 306
216 227 252 264 263 262 263 262 260 258 257 254 253 252 249 247 247 249 253 254 253 254 254 254 255 257 258 259 260 262 266 269 274 288 295 296 304 313 319 326 335 344 354 357 351 345 341 337 334 331 327 325 322 320 318 316 316 314 313 312 310 308 308 308 308 307 306 305 304 303 302 305 309 311 313 313 311 307 304 305 306 307 308 308 308
233 256 285 287 285 281 272 267 264 260 255 251 250 253 252 249 245 245 247 249 250 251 252 253 255 257 259 258 257 261 265 267 276 289 294 296 305 313 320 330 340 347 352 351 345 340 337 337 336 331 327 324 321 319 317 316 315 313 311 308 306 305 305 306 308 307 305 303 301 302 304 308 311 313 313 312 311 309 308 308 310 310 310 311 310
237 265 293 291 290 287 273 267 266 261 255 250 249 252 253 251 247 244 243 244 246 249 250 252 254 256 257 255 256 260 262 267 280 291 293 296 305 313 322 334 340 340 339 336 335 334 332 333 333 330 327 323 320 317 314 313 312 309 308 306 306 306 306 306 308 306 305 303 302 303 305 307 310 311 311 311 310 310 310 311 312 312 311 311 310
238 270 293 289 288 287 278 269 264 262 259 253 250 250 251 251 251 250 247 246 246 248 250 252 253 255 254 253 256 260 263 273 286 289 289 296 305 314 326 336 338 335 332 330 330 330 328 327 325 325 324 321 316 314 312 312 311 308 307 307 307 307 306 305 305 303 303 302 302 302 302 304 307 308 310 310 310 311 311 313 314 313 312 311 309
250 273 282 284 286 283 280 276 270 267 266 261 256 254 252 253 253 254 254 252 251 251 252 253 254 254 255 256 260 266 271 280 284 283 287 297 307 319 329 335 335 331 328 326 326 325 324 324 322 320 320 319 316 313 312 311 309 306 307 307 306 305 304 304 304 304 304 303 301 301 301 302 304 306 308 310 311 311 312 313 314 314 312 310 308
254 264 272 284 289 284 279 277 272 269 269 266 262 258 256 256 256 256 257 254 251 250 251 253 255 256 258 260 267 275 279 278 277 281 290 300 311 323 329 330 329 326 324 322 321 319 320 323 322 318 316 317 316 314 313 311 308 305 305 305 304 304 304 305 306 307 306 304 302 301 302 303 304 306 308 308 309 310 311 312 313 313 311 310 309
251 262 275 285 287 284 279 270 264 266 269 269 266 261 258 259 259 259 258 254 250 248 250 254 258 261 263 264 269 273 271 270 275 283 293 301 313 322 323 323 321 317 316 316 315 315 316 317 319 320 319 319 317 313 312 312 308 304 302 302 303 304 305 306 307 308 306 304 303 302 302 304 306 307 307 306 308 310 310 310 312 312 311 310 310
264 275 280 280 281 281 276 267 261 263 267 269 268 263 258 257 257 257 254 251 249 247 250 256 260 261 262 264 265 263 262 268 276 284 293 303 313 318 318 317 314 310 310 311 309 309 310 312 315 318 321 321 318 313 311 310 306 302 300 301 302 303 304 306 307 308 306 303 301 302 303 305 306 306 306 307 308 310 309 308 310 311 310 311 312
273 279 279 278 278 276 271 267 264 265 266 267 266 262 258 256 254 251 250 250 249 246 249 254 255 258 262 261 256 254 260 270 278 286 296 305 312 314 313 311 308 305 305 304 302 303 304 305 308 312 315 318 317 315 311 306 302 300 299 300 301 303 304 305 306 306 305 302 301 302 304 305 306 306 307 307 308 308 307 307 308 308 309 311 312
270 274 274 276 281 279 272 267 264 263 264 263 260 256 257 259 255 249 247 248 247 244 246 250 253 256 257 251 248 254 263 271 279 289 298 306 309 310 309 306 302 301 299 297 296 297 296 294 297 302 305 310 315 314 310 304 301 300 300 299 299 301 302 304 304 303 302 302 302 303 304 305 306 306 307 307 307 307 306 306 306 305 307 310 311
273 274 273 277 288 291 283 272 266 263 261 259 255 253 254 255 252 246 242 243 243 241 243 248 250 243 232 232 247 257 263 269 279 290 298 302 303 301 299 295 291 289 289 288 286 286 286 285 289 295 298 303 310 309 305 301 301 301 300 298 296 297 299 301 302 301 299 300 302 303 303 305 306 306 306 306 307 307 308 307 306 305 308 310 309
277 279 280 284 294 297 289 277 270 265 259 254 252 251 250 248 245 241 239 240 245 247 243 239 231 216 207 223 244 251 257 266 277 287 293 294 295 296 297 297 294 291 292 293 288 281 275 271 273 284 292 297 302 303 300 300 301 301 300 297 294 293 296 299 300 298 297 299 301 302 303 305 306 305 304 305 307 308 309 309 307 307 308 309 308
274 277 281 288 297 301 295 285 275 269 266 262 257 252 248 243 238 236 239 244 249 246 228 209 202 202 205 220 234 243 254 266 276 287 294 295 298 303 305 305 304 302 303 304 300 292 283 275 270 273 281 288 294 297 297 297 299 299 296 294 292 292 294 298 297 295 296 298 299 301 302 304 305 304 304 306 306 306 308 308 308 307 308 308 309
278 277 283 291 296 300 300 294 283 276 273 266 260 256 252 242 229 227 239 246 237 216 198 192 198 205 209 220 234 248 263 276 289 299 301 300 302 305 306 306 304 301 301 304 308 309 305 296 289 281 275 277 283 288 293 295 295 295 293 293 293 293 294 296 296 295 296 296 297 298 299 301 302 303 304 305 304 304 306 307 307 307 307 308 310
283 285 292 296 297 298 298 294 289 283 275 269 268 269 264 249 232 229 231 221 196 186 189 197 204 208 215 229 249 268 283 295 305 308 305 302 302 302 303 305 303 298 300 306 309 308 307 305 299 286 271 267 270 275 283 289 291 291 292 292 291 291 291 294 295 295 295 295 294 295 295 296 299 301 302 304 303 304 305 307 307 307 307 309 313
287 292 298 301 301 301 299 298 298 294 291 290 294 296 285 260 243 227 200 183 183 189 195 201 205 213 229 251 274 289 299 308 311 309 307 306 305 305 304 305 303 299 302 307 307 302 301 303 301 286 270 267 273 275 277 280 283 287 290 290 289 288 288 291 292 292 294 295 294 293 292 293 295 298 301 303 303 304 306 307 307 308 309 312 315
290 294 301 306 308 306 302 302 299 296 298 300 308 314 298 261 226 187 171 184 194 197 200 206 214 230 254 276 291 299 305 311 311 310 311 309 309 311 311 306 303 301 303 305 304 300 300 300 297 286 273 272 279 281 277 276 278 284 289 290 287 284 284 286 287 289 294 296 295 292 291 291 293 297 302 305 305 306 307 307 308 309 311 314 316
290 297 304 308 310 306 301 299 298 297 299 301 307 313 297 247 190 161 173 196 205 209 214 219 229 256 281 288 297 304 308 312 314 315 317 316 315 317 315 308 305 305 305 305 303 300 298 297 294 289 281 278 279 276 272 273 277 282 287 288 283 279 279 281 283 288 294 297 295 293 291 290 293 300 305 306 306 306 307 307 309 311 313 315 316
290 299 305 304 302 298 294 295 297 297 299 302 307 307 285 227 178 163 182 204 217 224 225 228 241 262 277 283 291 302 309 315 319 320 321 321 320 320 318 315 314 313 311 308 304 298 295 293 292 290 284 279 276 272 271 274 279 283 286 284 278 274 276 278 281 288 294 296 295 293 292 292 296 303 306 306 306 306 307 308 310 312 313 313 315
291 298 301 293 288 288 288 292 296 297 301 305 305 300 275 224 185 169 192 221 228 220 211 221 243 254 268 281 295 310 317 321 323 323 321 321 320 320 319 318 317 315 311 306 302 297 293 293 293 292 287 280 276 274 274 277 281 284 285 281 276 274 275 278 283 290 295 296 295 294 295 295 298 303 304 304 305 306 308 309 311 311 311 311 312
293 296 293 285 283 287 290 295 299 300 304 308 303 294 276 238 198 176 202 228 226 206 202 224 242 256 272 284 298 309 313 316 320 321 320 319 319 320 321 320 316 313 309 305 302 299 295 293 293 293 290 285 280 277 278 279 279 278 277 275 271 270 274 281 287 292 296 297 296 296 297 297 298 300 301 302 304 306 307 309 311 311 310 311 312
293 292 288 284 286 290 293 299 302 300 303 307 300 288 273 246 215 189 198 210 205 199 211 229 256 275 278 285 293 296 297 303 314 319 319 318 317 318 321 321 317 312 309 308 306 303 299 295 293 292 290 286 282 279 278 278 275 272 272 273 270 268 273 282 288 292 296 297 297 297 296 295 295 297 297 297 300 303 305 308 310 311 311 312 312
290 287 286 285 287 291 293 298 301 299 301 305 298 280 256 235 219 203 199 202 207 213 218 234 265 275 278 284 286 284 286 294 307 315 319 318 315 315 319 322 320 316 312 309 307 304 299 295 293 292 290 286 282 277 276 277 276 274 275 278 278 275 277 282 287 291 294 297 297 296 294 292 292 292 292 293 296 300 304 307 309 311 312 312 312
287 284 285 285 287 291 295 297 298 297 297 296 285 262 238 222 213 208 206 210 218 225 232 248 265 271 276 279 276 276 282 289 299 311 318 319 317 316 318 320 321 319 314 309 306 302 298 294 293 292 290 288 284 281 280 280 280 277 275 276 278 278 280 283 286 288 291 292 291 290 289 288 289 288 288 290 294 298 302 305 307 309 310 311 310
285 284 283 283 286 291 296 297 294 291 290 283 265 246 230 219 213 214 219 223 231 243 255 264 270 271 271 271 272 277 285 291 299 309 317 319 318 317 319 320 320 319 315 309 306 302 298 295 293 291 290 288 286 284 282 282 281 280 278 278 279 279 280 282 283 285 288 288 287 285 284 285 286 286 287 289 291 295 298 301 304 306 307 309 309
Height
3202 3203 3204 3205 3206 3206 3207 3208 3209 3209 3209 3209 3210 3210 3210 3210 3211 3212 3212 3213 3213 3213 3214 3214 3214 3214 3214 3214 3214 3214 3214 3214 3213 3212 3212 3211 3211 3211 3210 3209 3208 3207 3206 3205 3203 3202 3201 3200 3199 3198 3197 3196 3196 3195 3194 3193 3191 3191 3190 3189 3188 3188 3187 3185 3184 3184 3185 3184 3184 3184 3184 3183 3183 3183 3183 3182 3182 3182 3183 3183 3183 3183 3183 3183 3183
3201 3202 3203 3203 3204 3205 3206 3206 3207 3208 3209 3209 3210 3210 3209 3210 3210 3211 3212 3213 3213 3213 3214 3214 3214 3214 3214 3214 3213 3213 3213 3213 3212 3211 3210 3209 3209 3208 3207 3206 3205 3204 3203 3202 3201 3200 3199 3198 3197 3196 3196 3195 3194 3193 3192 3191 3190 3189 3188 3187 3186 3186 3185 3183 3182 3182 3182 3182 3181 3182 3182 3181 3180 3180 3180 3180 3180 3179 3180 3180 3180 3180 3180 3180 3179
3199 3200 3201 3202 3203 3203 3204 3205 3206 3207 3207 3208 3209 3209 3209 3209 3210 3211 3211 3212 3212 3213 3213 3214 3214 3214 3213 3213 3212 3212 3212 3211 3211 3210 3209 3209 3208 3207 3206 3205 3204 3203 3202 3200 3199 3198 3197 3197 3196 3195 3194 3194 3193 3191 3190 3189 3188 3187 3186 3186 3185 3184 3183 3181 3180 3180 3180 3179 3178 3178 3179 3179 3178 3178 3178 3178 3178 3178 3177 3177 3177 3177 3177 3176 3176
3198 3199 3200 3201 3201 3202 3203 3204 3205 3205 3206 3207 3208 3208 3209 3209 3210 3210 3211 3211 3211 3212 3212 3213 3213 3213 3212 3212 3212 3211 3211 3210 3209 3209 3208 3208 3207 3206 3205 3203 3202 3201 3200 3199 3198 3197 3196 3195 3194 3194 3193 3192 3191 3190 3188 3188 3187 3186 3185 3184 3183 3182 3181 3180 3178 3178 3177 3176 3176 3176 3176 3176 3176 3176 3176 3176 3176 3176 3175 3174 3174 3174 3174 3173 3173
3197 3198 3199 3199 3200 3201 3202 3203 3203 3204 3205 3206 3207 3208 3208 3208 3209 3210 3210 3211 3211 3211 3212 3212 3211 3211 3211 3211 3211 3210 3210 3209 3208 3207 3207 3206 3205 3204 3203 3201 3200 3199 3198 3197 3196 3195 3194 3193 3193 3192 3191 3190 3189 3188 3187 3186 3185 3184 3183 3182 3181 3180 3180 3178 3177 3176 3176 3175 3174 3173 3173 3172 3173 3173 3174 3174 3174 3173 3173 3173 3171 3171 3171 3171 3171
3196 3197 3198 3199 3199 3200 3201 3201 3202 3203 3204 3205 3206 3207 3207 3208 3208 3209 3209 3210 3210 3211 3211 3211 3211 3210 3210 3210 3210 3209 3209 3208 3207 3206 3204 3204 3203 3202 3200 3199 3198 3197 3196 3195 3194 3194 3193 3192 3191 3190 3189 3188 3187 3186 3185 3184 3183 3182 3181 3180 3179 3178 3178 3177 3175 3175 3174 3173 3172 3171 3170 3169 3169 3169 3169 3170 3171 3171 3171 3170 3169 3168 3168 3168 3168
3195 3196 3196 3197 3198 3199 3200 3200 3201 3202 3203 3204 3205 3206 3206 3207 3208 3208 3209 3209 3209 3210 3210 3210 3210 3210 3209 3209 3209 3209 3208 3207 3206 3205 3203 3202 3201 3200 3199 3198 3197 3196 3195 3194 3193 3192 3191 3190 3189 3188 3187 3186 3185 3184 3183 3182 3181 3180 3179 3178 3177 3176 3176 3175 3174 3173 3172 3172 3171 3170 3169 3167 3167 3166 3166 3165 3166 3168 3169 3168 3167 3167 3166 3165 3165
3193 3194 3195 3196 3197 3198 3199 3200 3201 3201 3202 3203 3204 3205 3205 3206 3207 3207 3208 3208 3208 3209 3209 3209 3209 3209 3209 3209 3208 3208 3207 3207 3206 3205 3203 3202 3200 3199 3198 3197 3196 3195 3194 3193 3192 3191 3190 3189 3188 3186 3185 3184 3183 3182 3181 3180 3179 3178 3177 3176 3175 3174 3174 3173 3172 3171 3171 3170 3169 3168 3167 3166 3165 3164 3163 3162 3161 3163 3165 3165 3165 3164 3164 3162 3162
3192 3193 3194 3195 3196 3197 3198 3199 3199 3200 3201 3202 3203 3203 3204 3205 3205 3206 3206 3207 3207 3208 3208 3208 3208 3208 3208 3208 3208 3207 3207 3206 3205 3205 3204 3202 3201 3199 3198 3196 3195 3194 3193 3192 3190 3189 3188 3187 3186 3185 3184 3182 3181 3180 3179 3178 3177 3176 3175 3174 3173 3172 3171 3171 3170 3169 3168 3168 3167 3166 3165 3165 3164 3162 3161 3160 3159 3158 3160 3161 3162 3161 3161 3160 3159
3190 3192 3193 3194 3195 3196 3197 3197 3198 3199 3200 3201 3201 3202 3203 3203 3204 3205 3205 3206 3206 3207 3207 3208 3208 3208 3208 3207 3207 3206 3206 3205 3204 3204 3203 3202 3200 3198 3197 3195 3194 3192 3191 3190 3189 3187 3186 3185 3184 3183 3182 3181 3179 3178 3177 3176 3175 3174 3173 3172 3171 3170 3169 3169 3168 3167 3166 3165 3165 3164 3163 3162 3162 3161 3159 3158 3157 3156 3156 3157 3157 3158 3158 3158 3156
3188 3190 3191 3192 3193 3194 3195 3195 3196 3197 3198 3199 3199 3200 3201 3202 3203 3203 3204 3205 3205 3206 3206 3207 3207 3207 3207 3206 3206 3205 3205 3204 3203 3202 3201 3200 3198 3197 3195 3194 3192 3191 3189 3188 3187 3185 3184 3183 3182 3181 3180 3178 3177 3177 3175 3174 3173 3172 3171 3170 3169 3169 3168 3167 3166 3165 3164 3163 3162 3162 3161 3160 3159 3159 3158 3156 3155 3154 3153 3153 3154 3154 3154 3154 3153
3185 3187 3189 3190 3191 3192 3192 3193 3194 3195 3196 3197 3198 3199 3200 3200 3201 3202 3203 3203 3204 3205 3205 3205 3206 3206 3206 3205 3205 3204 3204 3203 3202 3201 3200 3199 3197 3196 3194 3192 3190 3189 3187 3186 3184 3183 3182 3181 3180 3179 3177 3176 3175 3174 3174 3172 3171 3170 3169 3168 3168 3167 3166 3165 3164 3164 3163 3161 3160 3160 3159 3158 3157 3156 3155 3154 3153 3152 3151 3150 3150 3150 3151 3150 3150
3183 3184 3185 3186 3187 3189 3190 3191 3192 3193 3194 3196 3196 3197 3198 3199 3200 3200 3201 3202 3203 3203 3203 3204 3204 3204 3204 3204 3204 3203 3203 3202 3201 3200 3199 3197 3196 3194 3192 3191 3189 3187 3185 3183 3182 3181 3180 3179 3178 3177 3176 3175 3173 3173 3172 3171 3170 3169 3168 3167 3166 3165 3164 3163 3162 3162 3161 3160 3159 3158 3157 3156 3155 3154 3153 3152 3151 3150 3148 3148 3147 3146 3147 3147 3147
3179 3181 3182 3183 3184 3186 3187 3189 3190 3191 3192 3194 3194 3195 3196 3197 3198 3199 3199 3200 3201 3201 3202 3202 3202 3202 3202 3202 3202 3201 3201 3200 3199 3198 3197 3196 3194 3193 3191 3189 3187 3185 3183 3182 3180 3179 3178 3177 3176 3175 3174 3173 3172 3171 3170 3169 3168 3167 3166 3165 3164 3163 3162 3161 3160 3160 3159 3158 3157 3156 3155 3154 3153 3152 3151 3150 3149 3148 3146 3145 3144 3144 3143 3144 3144
3177 3178 3179 3180 3181 3183 3184 3186 3188 3189 3190 3191 3192 3193 3194 3195 3196 3196 3197 3198 3199 3199 3200 3200 3200 3200 3200 3200 3200 3199 3199 3198 3197 3196 3195 3194 3193 3191 3190 3188 3186 3184 3182 3180 3179 3178 3176 3175 3174 3173 3172 3171 3170 3169 3168 3167 3166 3165 3164 3164 3163 3161 3160 3159 3159 3158 3157 3156 3155 3154 3153 3152 3151 3150 3149 3148 3147 3146 3144 3143 3141 3140 3140 3140 3141
3176 3177 3177 3178 3179 3180 3182 3183 3185 3186 3188 3189 3190 3191 3191 3192 3193 3194 3195 3196 3196 3197 3198 3198 3198 3198 3198 3198 3197 3197 3197 3196 3195 3195 3194 3193 3191 3190 3188 3187 3185 3183 3181 3178 3177 3176 3175 3173 3172 3171 3170 3169 3168 3167 3167 3166 3164 3163 3163 3162 3161 3160 3158 3157 3157 3156 3155 3154 3152 3151 3150 3149 3149 3148 3147 3146 3145 3143 3142 3141 3139 3138 3136 3135 3136
3174 3174 3175 3175 3176 3178 3179 3181 3182 3183 3185 3186 3188 3188 3189 3190 3191 3192 3192 3193 3194 3195 3195 3196 3196 3196 3196 3196 3196 3195 3195 3194 3194 3193 3192 3191 3190 3188 3187 3185 3183 3181 3179 3177 3176 3174 3173 3172 3171 3170 3169 3168 3167 3166 3165 3164 3163 3161 3160 3160 3159 3158 3157 3155 3155 3153 3152 3151 3150 3149 3148 3147 3146 3145 3144 3143 3142 3141 3140 3138 3137 3135 3134 3132 3131
3172 3172 3172 3173 3174 3175 3177 3178 3180 3181 3183 3184 3186 3186 3187 3188 3188 3189 3190 3190 3191 3192 3193 3194 3194 3194 3194 3194 3194 3193 3193 3193 3192 3191 3190 3189 3188 3187 3185 3184 3182 3179 3178 3176 3174 3173 3171 3170 3169 3168 3167 3166 3165 3164 3163 3162 3161 3160 3159 3158 3157 3156 3155 3153 3152 3151 3150 3149 3148 3146 3145 3144 3144 3143 3142 3141 3140 3138 3137 3136 3134 3133 3131 3129 3127
3170 3170 3170 3170 3171 3172 3174 3176 3178 3179 3181 3182 3183 3184 3184 3185 3186 3187 3187 3188 3189 3190 3191 3191 3192 3192 3191 3192 3192 3191 3191 3191 3190 3189 3188 3187 3186 3185 3183 3181 3180 3178 3176 3174 3172 3170 3169 3168 3167 3166 3165 3164 3163 3162 3161 3160 3159 3158 3157 3156 3155 3154 3153 3152 3150 3149 3147 3146 3145 3144 3143 3142 3141 3140 3139 3138 3136 3135 3134 3133 3132 3130 3128 3127 3125
3167 3168 3168 3168 3169 3170 3172 3173 3175 3177 3178 3179 3180 3181 3182 3182 3183 3184 3184 3185 3186 3186 3187 3188 3189 3189 3189 3189 3189 3189 3189 3188 3188 3187 3186 3185 3184 3183 3181 3179 3178 3176 3174 3172 3170 3168 3167 3166 3165 3164 3163 3162 3161 3160 3159 3158 3157 3156 3155 3154 3153 3152 3151 3149 3148 3146 3145 3144 3143 3141 3140 3139 3138 3137 3136 3135 3133 3132 3130 3129 3128 3127 3126 3124 3123
3165 3166 3166 3167 3167 3168 3170 3171 3173 3174 3175 3176 3177 3178 3179 3179 3180 3181 3181 3182 3182 3183 3184 3185 3186 3186 3186 3186 3186 3186 3186 3186 3185 3185 3184 3183 3182 3181 3179 3177 3176 3174 3172 3170 3168 3167 3166 3164 3163 3162 3161 3159 3158 3157 3156 3155 3154 3153 3152 3151 3150 3149 3148 3146 3145 3144 3142 3141 3140 3139 3137 3136 3135 3134 3133 3131 3130 3128 3127 3125 3124 3123 3123 3122 3120
3164 3164 3165 3165 3166 3167 3168 3169 3170 3171 3172 3173 3174 3175 3176 3177 3177 3178 3178 3179 3180 3180 3181 3182 3182 3183 3183 3183 3184 3184 3184 3183 3183 3182 3181 3181 3180 3179 3177 3175 3173 3172 3170 3168 3167 3165 3164 3163 3162 3161 3159 3158 3156 3155 3154 3153 3152 3151 3150 3149 3148 3147 3145 3144 3142 3141 3139 3138 3137 3136 3134 3133 3132 3131 3130 3128 3127 3125 3123 3122 3121 3120 3119 3119 3117
3162 3163 3163 3163 3164 3165 3166 3167 3167 3168 3169 3170 3171 3172 3173 3174 3175 3175 3176 3176 3177 3178 3178 3179 3179 3180 3181 3181 3181 3181 3181 3181 3180 3179 3179 3179 3178 3176 3174 3173 3171 3169 3167 3166 3165 3164 3163 3162 3161 3159 3158 3157 3155 3154 3153 3151 3150 3149 3148 3146 3145 3143 3142 3141 3139 3138 3137 3136 3134 3133 3132 3130 3129 3128 3127 3125 3123 3122 3121 3119 3118 3117 3115 3115 3114
3160 3160 3160 3161 3162 3164 3164 3165 3165 3166 3167 3167 3168 3169 3170 3171 3172 3172 3173 3174 3174 3175 3175 3176 3177 3177 3177 3178 3178 3178 3178 3178 3177 3177 3177 3177 3176 3174 3172 3170 3169 3167 3165 3164 3163 3162 3161 3160 3159 3158 3157 3155 3154 3152 3151 3149 3148 3146 3145 3144 3142 3141 3139 3138 3137 3135 3134 3133 3131 3130 3129 3127 3126 3125 3124 3122 3121 3119 3118 3116 3115 3114 3112 3111 3111
3157 3158 3158 3159 3160 3161 3162 3162 3163 3163 3164 3164 3165 3166 3167 3168 3169 3169 3170 3171 3171 3172 3172 3173 3174 3174 3174 3175 3175 3175 3175 3175 3175 3175 3175 3175 3173 3171 3170 3168 3167 3165 3163 3161 3160 3159 3158 3157 3157 3156 3155 3153 3152 3150 3149 3147 3146 3144 3143 3142 3140 3139 3137 3136 3134 3133 3132 3130 3129 3128 3126 3125 3123 3122 3121 3120 3118 3117 3115 3113 3112 3110 3109 3107 3107
3155 3155 3156 3157 3158 3159 3159 3160 3161 3161 3161 3162 3163 3163 3164 3165 3165 3166 3167 3167 3168 3168 3169 3170 3171 3171 3171 3172 3172 3172 3172 3172 3172 3172 3173 3172 3171 3169 3167 3166 3164 3162 3160 3158 3157 3156 3155 3154 3154 3153 3152 3151 3149 3148 3147 3145 3143 3142 3141 3139 3138 3137 3135 3133 3132 3130 3129 3128 3126 3125 3124 3122 3121 3120 3119 3117 3115 3114 3112 3110 3109 3107 3106 3104 3103
3153 3154 3155 3156 3156 3157 3157 3157 3158 3158 3159 3159 3160 3160 3161 3161 3162 3162 3163 3164 3165 3165 3166 3166 3167 3168 3168 3169 3169 3169 3169 3169 3170 3170 3170 3169 3168 3166 3165 3163 3160 3158 3157 3156 3155 3154 3154 3153 3152 3150 3149 3148 3147 3145 3144 3143 3141 3140 3138 3137 3136 3135 3133 3132 3130 3128 3127 3125 3124 3122 3121 3120 3118 3117 3116 3114 3112 3111 3109 3108 3106 3105 3103 3101 3099
3151 3151 3152 3153 3154 3154 3154 3155 3155 3155 3156 3156 3156 3157 3157 3158 3159 3159 3160 3160 3161 3162 3163 3163 3164 3164 3165 3166 3166 3166 3166 3166 3167 3167 3167 3166 3165 3163 3162 3160 3158 3156 3156 3155 3155 3154 3153 3152 3150 3148 3147 3146 3144 3143 3141 3140 3139 3137 3136 3135 3134 3133 3132 3130 3129 3127 3125 3123 3122 3120 3118 3117 3115 3114 3113 3111 3110 3108 3106 3105 3104 3102 3099 3098 3096
3147 3148 3148 3149 3150 3151 3151 3151 3152 3152 3152 3153 3153 3153 3154 3155 3156 3156 3156 3157 3157 3158 3159 3160 3161 3161 3162 3163 3163 3163 3163 3164 3164 3165 3164 3163 3162 3160 3159 3157 3156 3156 3155 3154 3153 3152 3151 3149 3148 3147 3145 3144 3143 3141 3140 3138 3137 3135 3134 3132 3131 3130 3129 3128 3126 3125 3123 3121 3119 3117 3115 3114 3112 3111 3110 3108 3107 3105 3103 3102 3101 3099 3096 3094 3092
3144 3145 3145 3146 3146 3147 3147 3148 3148 3148 3148 3149 3149 3150 3150 3151 3152 3152 3153 3154 3154 3155 3156 3157 3157 3158 3160 3160 3160 3160 3161 3161 3162 3162 3161 3160 3159 3157 3156 3155 3154 3154 3153 3152 3151 3150 3149 3148 3147 3145 3144 3142 3141 3140 3138 3137 3135 3133 3131 3130 3128 3127 3125 3124 3124 3122 3121 3119 3117 3115 3113 3111 3110 3109 3107 3105 3103 3102 3100 3099 3097 3095 3093 3091 3089
3142 3142 3142 3143 3143 3143 3144 3144 3144 3145 3145 3145 3145 3146 3146 3147 3147 3148 3149 3150 3151 3152 3153 3154 3154 3156 3156 3157 3157 3157 3158 3159 3160 3159 3158 3157 3156 3154 3153 3152 3152 3151 3150 3149 3149 3148 3147 3146 3145 3143 3142 3141 3139 3138 3136 3135 3133 3131 3129 3127 3125 3124 3123 3121 3120 3119 3118 3116 3114 3112 3111 3109 3107 3106 3104 3102 3100 3099 3097 3095 3094 3092 3090 3088 3085
3140 3140 3140 3140 3140 3140 3140 3140 3141 3141 3141 3141 3142 3142 3142 3142 3143 3144 3145 3146 3147 3149 3150 3150 3151 3152 3153 3153 3154 3155 3156 3157 3157 3157 3156 3154 3152 3152 3151 3150 3149 3148 3148 3147 3147 3146 3144 3144 3143 3141 3140 3139 3137 3136 3134 3132 3130 3128 3126 3125 3123 3121 3120 3118 3117 3115 3114 3112 3111 3109 3108 3106 3104 3103 3101 3099 3098 3096 3094 3092 3091 3089 3087 3084 3082
3138 3138 3138 3137 3137 3136 3136 3136 3137 3137 3137 3137 3138 3138 3138 3138 3139 3140 3140 3142 3143 3145 3146 3147 3148 3149 3150 3151 3152 3154 3154 3155 3155 3154 3152 3151 3150 3149 3149 3148 3147 3146 3146 3145 3144 3143 3142 3141 3140 3139 3138 3136 3135 3133 3131 3129 3127 3125 3124 3122 3120 3118 3117 3115 3114 3112 3111 3109 3107 3106 3104 3103 3101 3099 3098 3096 3095 3093 3092 3089 3087 3086 3084 3082 3079
3134 3134 3134 3134 3134 3133 3133 3133 3133 3133 3133 3133 3133 3134 3134 3135 3135 3135 3136 3138 3139 3141 3142 3143 3145 3146 3147 3148 3150 3151 3152 3152 3152 3151 3149 3148 3148 3147 3146 3145 3145 3144 3144 3143 3142 3140 3139 3137 3136 3136 3135 3133 3132 3130 3128 3126 3124 3122 3120 3119 3117 3116 3114 3113 3111 3110 3108 3106 3104 3102 3101 3100 3098 3096 3095 3093 3092 3090 3088 3087 3085 3082 3081 3079 3077
3132 3131 3131 3130 3130 3130 3130 3130 3129 3129 3129 3129 3130 3130 3131 3131 3132 3132 3132 3134 3136 3137 3138 3139 3141 3141 3142 3144 3147 3148 3149 3149 3149 3147 3146 3146 3145 3145 3144 3144 3143 3142 3141 3140 3139 3137 3135 3134 3133 3132 3131 3130 3128 3126 3124 3123 3121 3119 3117 3115 3114 3113 3111 3110 3109 3107 3105 3103 3101 3099 3098 3097 3095 3094 3092 3090 3089 3087 3085 3084 3082 3080 3078 3076 3074
3130 3129 3128 3127 3127 3127 3126 3127 3126 3126 3125 3125 3126 3127 3128 3128 3129 3129 3129 3130 3132 3134 3135 3135 3136 3138 3139 3142 3144 3145 3146 3146 3145 3144 3143 3143 3143 3142 3142 3141 3140 3139 3138 3137 3135 3133 3132 3130 3129 3128 3127 3127 3125 3123 3121 3119 3117 3115 3113 3112 3111 3110 3108 3107 3106 3104 3102 3100 3098 3096 3095 3094 3092 3091 3089 3087 3086 3084 3083 3081 3079 3077 3075 3074 3072
3127 3127 3126 3125 3125 3124 3124 3124 3123 3122 3122 3122 3123 3124 3125 3124 3124 3124 3125 3126 3129 3131 3132 3132 3134 3136 3138 3139 3141 3142 3143 3142 3141 3140 3140 3139 3140 3140 3139 3138 3137 3136 3134 3133 3131 3130 3128 3126 3125 3124 3124 3123 3122 3120 3118 3116 3114 3112 3110 3109 3108 3107 3105 3104 3103 3101 3099 3098 3096 3094 3092 3091 3090 3088 3086 3084 3083 3081 3079 3077 3076 3074 3072 3071 3069
3123 3124 3124 3123 3122 3122 3121 3121 3120 3120 3120 3120 3120 3121 3120 3119 3119 3120 3121 3123 3126 3128 3129 3131 3133 3134 3135 3136 3139 3140 3140 3139 3138 3137 3136 3136 3136 3136 3136 3134 3133 3132 3131 3129 3128 3126 3124 3121 3119 3119 3119 3119 3118 3117 3115 3113 3110 3108 3107 3106 3105 3104 3102 3101 3100 3098 3096 3095 3093 3091 3089 3088 3087 3085 3082 3081 3079 3077 3076 3074 3072 3070 3069 3067 3066
3120 3121 3121 3121 3120 3119 3119 3118 3118 3118 3118 3118 3118 3117 3116 3115 3115 3116 3118 3121 3124 3125 3127 3129 3132 3132 3132 3134 3136 3137 3136 3135 3134 3133 3132 3132 3132 3132 3131 3131 3129 3128 3127 3126 3124 3121 3119 3117 3115 3115 3114 3113 3114 3113 3111 3109 3107 3106 3104 3103 3102 3101 3099 3098 3097 3095 3094 3092 3090 3088 3086 3085 3083 3081 3079 3078 3076 3074 3072 3071 3069 3067 3065 3064 3062
3117 3118 3119 3119 3118 3117 3117 3116 3116 3117 3117 3116 3114 3112 3112 3112 3112 3113 3116 3119 3121 3123 3125 3128 3129 3128 3129 3131 3133 3133 3132 3130 3129 3128 3128 3127 3126 3126 3126 3126 3125 3124 3122 3121 3119 3117 3116 3115 3115 3113 3111 3109 3109 3109 3108 3106 3105 3103 3101 3100 3099 3098 3096 3095 3093 3092 3091 3089 3088 3086 3084 3082 3080 3078 3076 3074 3073 3071 3069 3067 3065 3064 3062 3060 3058
3114 3115 3116 3116 3115 3115 3114 3114 3114 3114 3114 3113 3111 3110 3110 3111 3110 3111 3113 3117 3120 3122 3124 3125 3125 3125 3127 3128 3128 3128 3127 3126 3125 3125 3124 3123 3122 3122 3121 3121 3120 3119 3118 3116 3115 3114 3112 3112 3111 3109 3107 3105 3104 3104 3104 3103 3101 3099 3098 3097 3096 3094 3092 3091 3090 3089 3088 3087 3085 3084 3081 3079 3077 3075 3073 3071 3069 3067 3065 3064 3062 3060 3058 3056 3054
3112 3113 3113 3113 3113 3112 3111 3111 3112 3112 3111 3110 3110 3109 3109 3111 3111 3111 3113 3117 3120 3121 3122 3122 3122 3123 3124 3124 3124 3123 3122 3122 3122 3121 3120 3118 3117 3117 3116 3115 3114 3114 3113 3112 3111 3110 3108 3107 3106 3104 3102 3101 3101 3101 3100 3099 3097 3096 3094 3093 3092 3091 3089 3088 3087 3086 3084 3083 3082 3081 3078 3076 3074 3072 3070 3068 3066 3064 3062 3060 3059 3057 3055 3053 3050
3110 3111 3111 3111 3110 3109 3109 3108 3109 3109 3108 3107 3108 3106 3104 3107 3110 3111 3114 3117 3119 3119 3119 3119 3119 3120 3120 3120 3119 3119 3119 3118 3118 3117 3116 3114 3113 3113 3112 3110 3109 3109 3108 3107 3106 3105 3103 3102 3101 3099 3098 3098 3097 3097 3096 3094 3093 3092 3091 3089 3088 3087 3085 3084 3083 3082 3081 3080 3079 3077 3075 3073 3072 3069 3067 3065 3063 3061 3059 3057 3055 3054 3052 3050 3048
3108 3108 3108 3108 3107 3106 3106 3106 3106 3106 3105 3104 3105 3103 3102 3104 3106 3107 3111 3116 3117 3117 3117 3116 3116 3116 3116 3116 3115 3115 3115 3115 3114 3113 3112 3110 3109 3108 3107 3107 3105 3105 3104 3102 3101 3100 3098 3098 3097 3095 3094 3093 3092 3091 3091 3090 3088 3088 3087 3086 3085 3083 3082 3081 3080 3079 3078 3077 3075 3073 3072 3070 3068 3066 3064 3062 3060 3058 3056 3054 3053 3051 3049 3047 3045
3105 3105 3105 3105 3105 3105 3105 3104 3103 3103 3102 3102 3102 3100 3100 3103 3102 3101 3107 3113 3113 3113 3113 3112 3112 3113 3113 3113 3113 3113 3112 3111 3110 3109 3108 3106 3105 3104 3103 3102 3101 3099 3098 3098 3097 3096 3094 3093 3092 3091 3090 3088 3086 3085 3085 3085 3085 3084 3083 3082 3081 3079 3078 3077 3076 3075 3074 3073 3071 3069 3068 3067 3065 3064 3062 3059 3057 3055 3054 3052 3050 3049 3047 3045 3042
3102 3102 3102 3103 3103 3103 3103 3102 3101 3100 3099 3099 3100 3098 3099 3100 3098 3096 3103 3109 3109 3108 3109 3109 3109 3110 3110 3110 3110 3109 3108 3107 3106 3105 3105 3103 3102 3101 3100 3098 3097 3095 3094 3094 3093 3092 3090 3089 3087 3086 3085 3083 3082 3081 3081 3081 3081 3080 3079 3078 3077 3076 3074 3073 3072 3072 3070 3069 3067 3065 3064 3064 3062 3060 3058 3056 3054 3053 3051 3049 3048 3046 3044 3042 3040
3100 3099 3099 3099 3100 3100 3100 3099 3098 3098 3097 3096 3097 3096 3097 3098 3096 3095 3100 3105 3105 3105 3106 3107 3107 3107 3106 3106 3105 3104 3104 3104 3103 3103 3102 3101 3100 3098 3097 3095 3094 3092 3091 3090 3089 3088 3086 3084 3083 3082 3081 3079 3078 3078 3078 3078 3077 3076 3075 3073 3072 3072 3071 3070 3069 3068 3066 3065 3063 3062 3061 3061 3059 3057 3055 3053 3051 3050 3048 3047 3045 3044 3042 3040 3037
3096 3096 3096 3096 3096 3097 3097 3096 3095 3095 3094 3094 3094 3094 3094 3095 3095 3095 3097 3100 3101 3103 3105 3105 3104 3103 3102 3102 3102 3102 3102 3102 3101 3101 3099 3098 3097 3096 3094 3093 3091 3089 3088 3086 3085 3083 3082 3080 3079 3078 3077 3076 3075 3075 3074 3073 3072 3072 3070 3068 3067 3067 3067 3066 3065 3064 3062 3061 3059 3058 3058 3057 3056 3054 3052 3050 3049 3047 3046 3044 3043 3041 3039 3037 3035
3093 3093 3093 3093 3093 3094 3094 3093 3092 3092 3092 3091 3092 3092 3092 3093 3093 3093 3095 3097 3099 3101 3101 3101 3100 3100 3100 3100 3100 3100 3100 3100 3099 3098 3097 3095 3094 3093 3091 3090 3088 3086 3084 3082 3081 3080 3078 3076 3075 3074 3073 3072 3072 3072 3071 3069 3069 3068 3067 3065 3064 3064 3063 3062 3061 3060 3059 3057 3055 3055 3054 3054 3053 3051 3049 3047 3046 3045 3043 3042 3040 3039 3037 3035 3033
3090 3090 3090 3090 3090 3090 3090 3090 3090 3090 3090 3089 3089 3090 3090 3089 3089 3090 3092 3094 3096 3098 3098 3098 3098 3098 3099 3099 3098 3098 3098 3097 3096 3095 3093 3092 3091 3089 3088 3086 3084 3082 3080 3079 3077 3076 3074 3073 3071 3070 3069 3068 3068 3067 3066 3065 3065 3064 3064 3063 3062 3060 3060 3058 3057 3056 3055 3053 3052 3051 3051 3050 3049 3048 3046 3045 3043 3042 3041 3039 3038 3036 3035 3032 3030
3087 3087 3087 3087 3087 3087 3087 3087 3087 3087 3087 3087 3087 3087 3087 3086 3086 3088 3090 3092 3094 3095 3096 3096 3096 3096 3096 3096 3096 3095 3095 3094 3092 3091 3089 3088 3086 3085 3083 3082 3080 3078 3076 3074 3073 3072 3070 3069 3067 3066 3065 3064 3063 3062 3062 3061 3061 3060 3060 3059 3057 3056 3055 3054 3053 3051 3050 3049 3048 3048 3047 3047 3046 3045 3043 3042 3041 3040 3039 3037 3036 3034 3032 3030 3028